Regional Weather Roundup
Issued by NWS

Home | Current Version | Previous Version | Graphics & Text | Print | Product List | Glossary On
Versions: 1 2 3 4 5 6 7 8 9 10 11 12 13 14 15 16 17 18 19 20 21 22 23 24 25 26 27 28 29 30 31 32 33 34 35 36 37 38 39 40 41 42 43 44 45 46 47 48 49 50
000
ASUS43 KTOP 021859
RWRKS

WEATHER ROUNDUP FOR KANSAS
NATIONAL WEATHER SERVICE GOODLAND KS
200 PM CDT TUE JUN 02 2015

NOTE:  "FAIR" INDICATES FEW OR NO CLOUDS BELOW 12,000 FEET WITH NO
SIGNIFICANT WEATHER AND/OR OBSTRUCTIONS TO VISIBILITY.

KSZ001>006-013>018-027>032-041>047-022000-
NORTHWEST KANSAS

CITY           SKY/WX    TMP DP  RH WIND       PRES   REMARKS
GOODLAND       SUNNY     83  62  49 S13       29.87F
HAYS           SUNNY     82  64  54 S17       29.87F
HILL CITY      SUNNY     83  65  54 SE14G22   29.86F
RUSSELL        MOSUNNY   82  66  58 SE16      29.87F
$$

KSZ061>065-074>080-084>089-022000-
SOUTHWEST KANSAS

CITY           SKY/WX    TMP DP  RH WIND       PRES   REMARKS
DODGE CITY     SUNNY     86  61  42 S18       29.89F
ELKHART          N/A     88  58  36 SW10        N/A
GARDEN CITY    SUNNY     86  61  42 S21G28    29.85F
GREAT BEND     MOSUNNY   82  66  57 SE20G25   29.87F
LIBERAL        SUNNY     88  63  42 S17G29    29.89F
$$

KSZ066>073-081>083-090>101-022000-
SOUTHEAST KANSAS

CITY           SKY/WX    TMP DP  RH WIND       PRES   REMARKS
CHANUTE        MOSUNNY   79  66  64 VRB6      30.00F
COFFEYVILLE    PTSUNNY   79  66  64 S7        29.99F
HUTCHINSON     MOSUNNY   86  64  47 S18       29.91F
MEDICINE LODGE   N/A     86  65  49 S15G23    29.89F
NEWTON         MOSUNNY   82  63  51 S15G26    29.96F
PARSONS        MOSUNNY   80  67  64 VRB5      30.00F
WICHITA INTL   PTSUNNY   86  66  51 S18G24    29.92F
WICHITA JABRA  LGT RAIN  83  66  56 S16G25    29.93F
WINFIELD       SUNNY     83  67  58 SE16G23   29.95F
$$

KSZ007>012-019>026-033>040-048>060-102>105-022000-
NORTHEAST KANSAS

CITY           SKY/WX    TMP DP  RH WIND       PRES   REMARKS
CONCORDIA      MOSUNNY   80  64  58 SE18G28   29.90F
EMPORIA        MOSUNNY   77  64  64 SE14      29.97F
LAWRENCE       PTSUNNY   74  61  63 SE15G22   30.00F
MANHATTAN      PTSUNNY   76  65  68 SE7       29.94F
OLATHE IND     PTSUNNY   73  61  65 S15       30.02F
OLATHE EXE     PTSUNNY   73  61  65 SE12      30.01F
SALINA         SUNNY     83  65  54 S20G28    29.90F
TOPEKA BILLARD PTSUNNY   75  62  64 SE16      29.98F
TOPEKA FORBES  CLOUDY    76  62  62 SE14      29.98F
$$



USA.gov is the U.S. government's official web portal to all federal, state and local government web resources and services.